Temp
64 63 63 63 62 62 62 61 61 61 61 60 60 60 60 60 60 61 61 61 61 60 61 61 61 62 59 62 72 82 80 79 80 82 81 79 76 74 67 72 75 71 74 76 79 78 78
63 63 63 62 62 62 61 61 61 61 60 60 60 60 60 60 60 60 60 60 60 60 60 61 61 61 61 63 85 83 81 80 82 81 80 80 79 80 72 72 69 74 76 75 77 80 80
63 63 62 62 62 61 61 61 61 61 60 60 60 59 59 60 60 60 60 60 60 60 60 61 62 65 66 73 86 82 81 80 81 81 79 82 83 76 74 72 76 73 70 72 77 74 75
62 62 62 62 61 61 61 61 61 60 60 60 59 59 59 59 60 60 60 59 59 61 61 62 63 62 65 84 82 84 78 80 82 80 81 83 82 75 72 76 73 67 61 58 72 74 77
62 62 61 61 61 61 60 60 60 60 59 59 59 59 59 59 59 59 59 58 62 63 64 64 60 62 69 83 81 83 84 82 81 80 80 93 80 70 72 63 58 58 54 58 66 76 73
62 62 61 62 61 61 60 60 60 59 59 59 59 59 59 59 59 59 58 59 64 63 66 71 75 65 76 80 84 86 81 85 82 79 79 75 69 64 59 58 51 54 54 57 61 70 73
61 61 61 61 61 60 60 60 59 59 59 59 59 59 58 59 58 58 56 63 66 64 65 64 66 72 77 84 88 85 87 85 80 76 64 68 62 59 63 63 67 63 59 59 67 74 65
61 61 61 61 60 60 59 59 59 59 59 59 59 58 58 58 58 57 55 68 65 69 61 72 73 74 80 80 77 83 87 76 72 66 67 64 59 69 70 69 65 63 59 60 65 71 66
61 61 60 60 60 59 59 59 59 59 59 58 58 58 58 57 56 62 60 67 70 64 56 68 74 74 76 79 77 79 84 77 72 65 65 61 69 76 72 69 65 59 56 59 62 66 65
60 60 60 60 60 59 59 59 59 59 58 58 58 58 57 55 62 57 67 70 67 68 53 67 70 78 79 79 74 87 86 81 71 68 67 64 72 73 68 66 65 51 67 68 66 59 52
60 60 60 60 59 59 59 59 58 58 58 58 58 58 57 55 52 61 70 64 66 68 49 73 72 83 74 74 76 80 85 77 70 70 67 65 69 68 67 68 70 64 70 66 64 56 50
60 60 60 59 59 59 58 58 58 58 58 58 58 58 56 54 50 59 63 63 67 56 50 69 74 71 68 71 76 79 78 79 76 69 67 67 74 70 68 73 70 72 65 59 53 50 45
59 60 60 59 59 59 58 58 58 58 57 57 57 56 54 59 64 61 63 64 55 50 68 65 64 66 62 67 71 74 71 66 62 55 55 64 65 70 74 65 67 64 52 43 43 43 43
58 58 59 59 58 58 58 58 58 57 57 57 56 54 55 59 55 62 63 60 47 62 62 68 67 65 63 66 68 71 67 61 65 60 53 52 54 66 72 63 59 56 51 45 36 38 44
57 58 58 59 59 58 58 57 57 57 57 56 54 55 56 62 61 60 61 50 52 59 68 67 65 60 60 66 65 66 61 61 64 60 54 50 54 68 70 69 64 58 50 54 46 41 41
57 57 57 58 57 58 58 57 57 57 56 55 50 51 59 67 66 63 55 49 55 66 71 66 56 60 56 61 61 59 60 65 65 67 62 56 49 58 68 68 66 56 61 49 45 37 36
57 56 56 56 56 57 57 57 56 56 55 54 53 56 67 65 67 59 49 50 61 72 71 64 60 58 58 58 57 55 58 66 69 66 62 54 52 55 60 56 53 55 52 50 46 43 38
57 56 56 56 56 56 56 57 56 54 53 52 49 53 67 68 57 45 50 57 63 68 69 65 65 62 58 59 56 58 58 63 71 67 57 54 48 44 52 61 64 58 52 48 42 41 42
57 56 56 56 56 56 56 57 56 54 53 49 44 46 63 66 49 48 54 61 65 65 65 64 63 65 62 57 52 59 63 70 70 65 56 56 47 41 46 52 57 53 55 51 47 41 41
57 57 56 56 56 56 56 58 56 55 54 48 47 48 55 56 51 49 50 54 59 69 65 66 63 63 58 55 56 54 59 67 70 66 65 60 45 46 41 48 52 51 56 58 48 40 41
57 56 56 56 56 56 56 57 56 56 55 49 47 48 50 46 50 49 48 54 56 56 64 63 60 59 54 48 50 51 56 59 65 64 60 56 48 48 50 54 55 55 56 58 51 50 45
57 56 56 56 56 56 56 56 56 56 54 48 46 47 49 47 48 50 49 49 54 58 56 59 55 60 57 51 53 49 51 49 53 56 52 50 47 45 46 56 56 55 59 59 57 56 52
56 56 56 56 56 56 56 56 56 55 53 46 49 50 49 47 47 47 47 52 56 57 59 62 61 56 55 59 62 62 60 58 58 55 50 50 46 42 39 50 52 47 54 56 55 54 52
57 57 56 56 56 56 56 56 56 55 54 50 46 46 45 44 46 50 54 57 57 56 53 62 60 54 63 64 62 56 51 54 56 56 53 46 44 42 39 42 35 51 57 59 55 57 56
57 57 57 56 56 56 56 56 56 56 55 52 53 51 49 42 47 51 53 51 54 54 54 58 62 63 59 56 52 47 47 50 53 55 50 52 44 41 40 39 47 52 54 54 50 51 57
57 57 57 57 57 56 56 56 56 56 54 52 52 55 50 45 45 55 50 50 47 45 50 56 63 61 58 49 48 38 39 43 45 51 50 48 47 43 41 38 38 49 58 60 56 43 57
55 56 56 57 57 57 56 56 56 56 55 52 52 56 52 47 53 50 47 47 51 46 45 48 55 56 53 45 43 41 41 49 43 42 43 42 43 41 40 40 46 57 60 60 43 45 56
55 55 56 56 57 57 57 56 56 56 56 52 50 56 52 46 49 54 57 51 49 48 44 50 50 50 47 43 43 42 41 45 42 45 42 42 40 38 40 40 40 59 57 49 51 54 57
55 55 55 55 56 56 57 56 56 56 56 55 49 58 58 47 47 53 58 62 58 57 50 47 47 46 49 45 43 43 44 43 41 40 46 42 45 42 44 46 54 54 55 57 56 56 58
MSLP
1021.72 1021.35 1021.04 1020.59 1020.23 1019.82 1019.29 1018.77 1018.30 1017.74 1017.16 1016.58 1015.97 1015.37 1014.73 1013.99 1013.21 1012.46 1011.75 1011.11 1010.65 1010.34 1010.11 1009.81 1009.70 1009.54 1009.31 1008.31 1005.60 1003.70 1003.75 1003.85 1004.32 1004.71 1004.81 1004.94 1005.14 1005.33 1005.48 1005.34 1005.06 1004.89 1004.50 1004.14 1003.64 1003.30 1002.85
1021.71 1021.41 1021.04 1020.55 1020.16 1019.71 1019.19 1018.68 1018.14 1017.58 1016.99 1016.35 1015.67 1014.96 1014.22 1013.56 1012.68 1011.84 1011.20 1010.58 1010.10 1009.71 1009.49 1009.39 1009.39 1009.38 1008.93 1006.80 1003.58 1003.48 1003.81 1004.04 1004.15 1004.39 1004.55 1004.66 1004.69 1004.81 1005.05 1005.07 1005.09 1004.67 1004.33 1003.76 1003.12 1002.54 1002.06
1021.78 1021.45 1021.03 1020.60 1020.19 1019.72 1019.16 1018.62 1018.01 1017.40 1016.76 1015.94 1015.22 1014.56 1013.80 1012.96 1012.04 1011.22 1010.59 1009.91 1009.47 1009.10 1008.91 1008.96 1009.04 1009.02 1008.15 1005.08 1003.49 1003.51 1003.67 1003.83 1003.96 1004.06 1004.26 1004.12 1004.27 1004.63 1004.89 1004.89 1004.73 1004.86 1004.79 1004.09 1002.94 1002.41 1001.94
1021.77 1021.43 1021.04 1020.65 1020.22 1019.74 1019.24 1018.65 1017.96 1017.30 1016.62 1015.89 1015.06 1014.25 1013.46 1012.61 1011.64 1010.76 1010.09 1009.27 1008.68 1008.37 1008.45 1008.66 1008.83 1008.58 1006.71 1003.76 1003.44 1003.68 1003.78 1003.66 1003.59 1003.82 1003.82 1003.77 1004.17 1004.55 1004.87 1004.89 1005.21 1005.38 1005.32 1004.98 1003.10 1002.65 1002.52
1021.77 1021.43 1021.04 1020.66 1020.20 1019.74 1019.20 1018.66 1018.03 1017.25 1016.55 1015.87 1015.00 1014.07 1013.12 1012.20 1011.17 1010.17 1009.54 1008.78 1007.98 1008.01 1008.21 1008.53 1008.74 1007.96 1005.31 1003.51 1003.41 1002.71 1003.16 1003.48 1003.35 1003.63 1003.70 1003.79 1004.12 1004.90 1005.22 1005.81 1006.36 1006.64 1006.38 1005.52 1004.03 1002.68 1002.98
1021.90 1021.52 1021.11 1020.65 1020.14 1019.69 1019.13 1018.48 1017.85 1017.15 1016.41 1015.64 1014.89 1013.97 1012.86 1011.83 1010.87 1009.74 1009.20 1008.71 1008.37 1008.25 1008.47 1008.35 1007.98 1007.54 1004.76 1003.59 1002.80 1002.38 1002.76 1003.21 1003.38 1003.63 1003.85 1004.08 1004.86 1005.53 1006.26 1006.89 1007.34 1007.08 1006.83 1006.06 1005.25 1003.53 1003.01
1021.89 1021.52 1021.10 1020.62 1020.14 1019.63 1018.99 1018.40 1017.74 1017.07 1016.36 1015.64 1014.87 1014.02 1012.95 1011.72 1010.72 1009.78 1008.78 1008.63 1008.95 1008.43 1007.91 1007.50 1007.13 1006.25 1004.80 1003.52 1002.52 1002.21 1002.28 1002.89 1003.24 1003.88 1004.49 1004.89 1005.76 1006.00 1005.78 1006.20 1006.20 1006.57 1006.53 1006.17 1004.67 1003.58 1003.96
1021.99 1021.56 1021.11 1020.66 1020.12 1019.54 1018.97 1018.39 1017.76 1017.04 1016.31 1015.61 1014.75 1013.85 1012.85 1011.57 1010.64 1009.70 1009.41 1009.49 1010.09 1009.54 1008.29 1006.57 1005.92 1005.46 1004.35 1004.09 1003.43 1002.27 1002.13 1002.91 1003.40 1004.14 1004.75 1005.52 1005.65 1004.76 1005.13 1005.37 1005.75 1005.97 1006.19 1005.54 1004.75 1003.67 1004.18
1022.06 1021.63 1021.13 1020.60 1020.10 1019.59 1019.00 1018.39 1017.69 1016.92 1016.19 1015.44 1014.61 1013.86 1013.01 1011.45 1010.56 1009.86 1010.29 1009.67 1009.28 1008.88 1008.84 1006.08 1004.93 1004.16 1003.19 1003.55 1003.02 1002.24 1002.17 1002.74 1003.34 1004.04 1004.67 1005.36 1004.49 1004.14 1004.51 1004.61 1005.02 1005.14 1005.53 1005.08 1004.92 1004.20 1003.94
1022.03 1021.58 1021.12 1020.67 1020.18 1019.61 1019.01 1018.36 1017.66 1016.90 1016.12 1015.30 1014.53 1013.91 1013.15 1011.70 1010.68 1011.16 1010.05 1009.12 1008.76 1008.61 1008.45 1005.60 1004.01 1002.65 1002.45 1002.59 1002.51 1001.63 1001.74 1002.46 1003.15 1003.72 1004.46 1004.75 1004.34 1004.17 1004.13 1004.39 1004.47 1004.57 1004.61 1004.66 1004.52 1004.73 1005.32
1022.02 1021.61 1021.11 1020.63 1020.12 1019.58 1018.97 1018.28 1017.53 1016.74 1015.91 1015.05 1014.24 1013.70 1013.16 1012.65 1012.43 1011.30 1009.73 1008.90 1008.66 1008.68 1007.56 1004.56 1003.04 1001.97 1002.15 1002.52 1002.34 1001.53 1001.58 1002.15 1002.84 1003.44 1004.12 1004.37 1004.03 1003.94 1004.02 1004.32 1004.16 1004.59 1004.37 1004.72 1004.88 1005.54 1006.21
1021.99 1021.53 1021.07 1020.63 1020.13 1019.55 1018.98 1018.34 1017.55 1016.72 1015.82 1014.77 1013.76 1013.26 1013.07 1012.62 1012.44 1010.29 1009.36 1008.97 1008.74 1008.78 1006.38 1004.26 1003.04 1002.73 1002.82 1002.66 1002.42 1001.83 1001.88 1002.17 1002.87 1003.56 1004.05 1004.17 1003.85 1004.07 1004.17 1004.00 1004.36 1004.63 1004.89 1005.57 1006.39 1006.97 1007.68
1022.14 1021.59 1021.11 1020.65 1020.18 1019.67 1019.12 1018.47 1017.64 1016.81 1015.82 1014.60 1013.36 1012.50 1012.51 1012.03 1010.87 1009.82 1009.28 1009.34 1009.39 1007.90 1005.93 1005.13 1004.28 1003.89 1003.74 1003.36 1002.80 1002.48 1002.57 1003.15 1003.88 1004.48 1004.78 1004.78 1004.67 1004.48 1004.44 1004.55 1004.55 1005.08 1006.16 1007.52 1008.30 1008.77 1008.89
1022.35 1021.84 1021.29 1020.79 1020.26 1019.70 1019.16 1018.54 1017.79 1016.91 1015.85 1014.50 1013.04 1011.91 1011.48 1010.62 1010.01 1009.88 1009.88 1009.84 1009.12 1007.61 1006.35 1005.33 1004.90 1004.54 1004.71 1004.37 1003.70 1003.43 1003.55 1004.43 1004.76 1005.21 1006.04 1006.15 1005.71 1005.30 1005.26 1005.42 1005.76 1006.27 1007.48 1009.03 1009.81 1010.26 1009.70
1022.51 1021.98 1021.44 1020.88 1020.32 1019.79 1019.26 1018.60 1017.87 1017.02 1015.89 1014.52 1012.91 1011.57 1011.22 1009.64 1009.64 1010.00 1010.48 1010.39 1009.14 1007.77 1006.55 1005.92 1005.41 1005.63 1005.59 1005.19 1004.94 1004.65 1004.84 1005.19 1005.42 1005.68 1006.43 1006.97 1006.76 1006.11 1005.73 1005.61 1005.97 1006.99 1007.91 1008.74 1009.91 1010.82 1010.60
1022.54 1022.05 1021.52 1020.97 1020.50 1019.88 1019.30 1018.69 1017.99 1017.11 1015.93 1014.81 1014.23 1013.09 1010.91 1009.63 1009.51 1009.99 1010.72 1010.43 1009.15 1007.60 1006.55 1006.07 1006.28 1006.30 1006.45 1006.25 1006.14 1005.84 1005.60 1005.64 1005.72 1005.81 1006.19 1007.40 1007.86 1007.44 1006.83 1006.51 1006.81 1007.17 1008.09 1009.28 1010.73 1011.69 1011.57
1022.74 1022.32 1021.84 1021.28 1020.69 1020.12 1019.47 1018.88 1018.25 1017.42 1016.03 1014.66 1014.53 1013.44 1010.63 1009.68 1009.71 1010.86 1011.69 1010.82 1009.08 1007.53 1006.70 1006.26 1006.29 1006.58 1006.90 1007.09 1006.91 1006.62 1006.32 1006.03 1006.04 1006.26 1006.64 1007.59 1008.49 1008.68 1008.06 1008.12 1008.28 1008.46 1009.01 1010.23 1011.51 1012.16 1012.36
1022.68 1022.29 1021.86 1021.38 1020.83 1020.25 1019.62 1018.98 1018.40 1017.73 1016.50 1015.34 1015.70 1014.36 1010.62 1009.86 1011.16 1012.34 1012.01 1010.86 1009.30 1007.93 1006.85 1006.34 1006.28 1006.66 1007.03 1007.33 1007.35 1007.07 1006.84 1006.38 1006.08 1006.24 1007.31 1008.36 1009.53 1010.00 1009.67 1008.85 1008.78 1008.85 1009.38 1010.54 1012.02 1012.49 1012.43
1022.62 1022.29 1021.91 1021.51 1021.02 1020.37 1019.76 1019.11 1018.70 1018.39 1018.06 1018.04 1017.24 1015.28 1011.16 1010.68 1012.25 1013.07 1012.12 1010.96 1009.75 1008.68 1007.80 1007.29 1006.94 1006.93 1007.16 1007.52 1007.80 1007.67 1007.38 1007.07 1006.60 1007.10 1007.89 1008.58 1010.00 1010.67 1010.49 1010.06 1009.37 1009.15 1009.45 1010.06 1011.20 1012.08 1012.19
1022.52 1022.16 1021.84 1021.47 1021.07 1020.56 1019.94 1019.35 1018.92 1018.68 1018.44 1018.42 1017.82 1016.39 1013.77 1012.91 1013.39 1013.38 1012.92 1011.62 1010.37 1008.94 1008.39 1008.04 1007.59 1007.25 1007.74 1008.10 1008.56 1008.59 1008.33 1007.98 1007.83 1008.04 1008.41 1008.77 1010.78 1011.33 1011.35 1010.77 1010.17 1009.78 1009.39 1009.52 1010.48 1011.63 1011.43
1022.27 1022.05 1021.71 1021.38 1021.03 1020.61 1020.11 1019.48 1019.05 1018.67 1018.35 1018.51 1017.98 1017.17 1016.20 1015.35 1014.56 1014.13 1013.37 1012.39 1011.35 1010.54 1009.32 1008.66 1008.36 1008.39 1008.43 1008.95 1009.30 1009.47 1009.45 1009.18 1008.76 1009.01 1009.34 1010.05 1011.18 1011.37 1011.07 1010.71 1010.19 1009.64 1009.41 1009.34 1009.83 1010.08 1010.71
1022.04 1021.75 1021.55 1021.28 1020.99 1020.59 1020.12 1019.61 1019.16 1018.74 1018.28 1018.49 1018.27 1017.64 1016.66 1016.12 1015.20 1014.59 1013.81 1013.35 1012.48 1011.55 1010.67 1009.64 1009.07 1008.86 1008.65 1009.23 1009.53 1009.84 1009.95 1010.13 1010.01 1009.84 1010.38 1011.18 1011.61 1011.69 1011.40 1010.46 1009.76 1009.38 1008.86 1008.81 1009.02 1009.32 1009.60
1021.82 1021.50 1021.25 1021.04 1020.78 1020.53 1020.18 1019.67 1019.24 1018.75 1018.58 1018.53 1018.14 1017.70 1017.28 1016.47 1015.86 1015.16 1014.46 1013.77 1013.01 1012.49 1010.97 1010.19 1009.79 1009.54 1009.31 1009.10 1009.06 1009.26 1009.39 1009.73 1009.96 1010.40 1010.79 1011.60 1012.02 1012.38 1011.66 1010.80 1010.13 1009.31 1008.34 1008.30 1008.56 1008.86 1009.28
1021.40 1021.18 1020.96 1020.80 1020.63 1020.34 1020.12 1019.82 1019.36 1018.91 1018.76 1018.91 1018.60 1018.38 1018.08 1017.13 1016.23 1015.30 1014.56 1014.14 1013.55 1013.07 1012.48 1010.79 1009.99 1009.75 1009.20 1008.99 1009.21 1009.61 1009.97 1010.13 1009.97 1009.82 1010.35 1011.23 1011.87 1012.23 1012.07 1011.44 1010.53 1008.91 1008.37 1008.37 1008.68 1008.53 1008.65
1020.87 1020.75 1020.56 1020.44 1020.31 1020.10 1019.94 1019.72 1019.32 1018.92 1018.65 1018.78 1018.53 1018.44 1018.09 1017.33 1016.29 1015.39 1014.75 1014.35 1013.84 1013.27 1012.77 1011.65 1010.57 1010.14 1009.89 1009.94 1010.51 1010.86 1011.01 1010.87 1010.17 1010.01 1010.52 1010.88 1011.76 1012.35 1012.38 1011.80 1010.28 1009.25 1008.90 1008.94 1009.06 1008.66 1008.38
1020.30 1020.24 1020.17 1020.07 1019.93 1019.79 1019.64 1019.53 1019.20 1018.87 1018.59 1018.66 1018.47 1018.18 1018.18 1017.58 1016.00 1015.08 1014.82 1014.54 1014.44 1013.96 1013.40 1012.16 1010.98 1010.32 1010.38 1011.29 1012.14 1012.80 1012.92 1012.29 1011.70 1010.80 1010.77 1011.13 1011.31 1012.17 1012.62 1012.07 1011.08 1009.83 1008.98 1009.56 1009.68 1009.10 1008.40
1019.90 1019.75 1019.67 1019.59 1019.51 1019.39 1019.31 1019.19 1019.00 1018.72 1018.42 1018.47 1018.20 1017.84 1017.86 1017.41 1015.62 1015.03 1014.64 1014.38 1014.21 1014.25 1014.22 1013.31 1012.48 1011.69 1011.44 1012.54 1013.30 1013.80 1013.58 1012.74 1012.54 1012.03 1011.99 1012.15 1012.44 1012.66 1012.42 1011.96 1010.81 1009.14 1009.11 1009.53 1009.81 1009.41 1008.39
1019.31 1019.21 1019.12 1019.12 1019.03 1018.95 1018.88 1018.76 1018.65 1018.43 1018.22 1018.18 1017.98 1017.73 1017.62 1017.17 1015.65 1014.75 1014.14 1013.92 1014.09 1014.29 1014.46 1013.68 1013.27 1013.02 1013.02 1013.53 1014.08 1014.05 1013.87 1013.15 1013.00 1012.45 1012.39 1012.91 1013.05 1013.14 1012.79 1011.76 1010.58 1009.31 1009.51 1009.46 1008.69 1008.32 1008.12
1018.68 1018.66 1018.62 1018.60 1018.55 1018.48 1018.43 1018.36 1018.20 1017.98 1017.92 1017.74 1018.06 1017.07 1017.24 1017.41 1015.73 1014.33 1013.83 1013.13 1013.24 1013.36 1013.75 1013.95 1013.90 1013.67 1013.37 1013.98 1014.42 1014.32 1014.11 1013.66 1013.57 1013.34 1012.56 1012.73 1012.64 1012.64 1012.19 1010.81 1009.83 1009.54 1008.99 1008.46 1008.42 1008.01 1007.54
Wind_Speed
12 13 13 13 14 14 15 16 17 18 20 21 22 22 23 23 24 23 23 22 20 18 17 15 11 9 3 1 9 3 8 11 8 6 5 5 4 4 2 3 5 4 4 3 6 10 7
12 13 14 14 15 16 17 18 19 19 21 20 21 21 21 22 23 23 22 21 20 18 16 12 8 4 1 2 3 7 8 5 6 5 6 5 5 6 2 3 1 4 7 9 8 14 8
11 13 14 14 15 16 17 19 19 20 20 21 22 22 23 24 24 24 23 22 20 17 14 9 4 3 1 11 4 6 8 5 4 5 5 4 5 2 1 5 0 2 7 9 14 4 4
12 13 14 14 15 16 17 19 21 21 21 22 23 24 24 25 25 25 23 22 21 13 8 4 7 2 7 5 1 4 3 4 3 5 2 3 4 1 3 3 8 4 3 5 7 2 6
13 13 14 14 15 16 17 18 20 21 21 21 23 24 25 26 26 26 23 22 13 2 5 10 3 2 8 2 2 7 7 5 2 2 4 2 3 2 5 3 6 7 2 5 10 4 3
12 13 14 16 16 17 18 19 20 21 22 22 23 25 26 27 27 27 23 6 6 7 3 4 3 2 5 4 5 4 5 5 4 2 3 3 5 1 3 5 4 3 2 5 7 10 11
12 13 15 16 17 17 18 19 20 21 22 22 23 24 26 28 28 25 10 3 7 5 2 4 1 3 6 6 6 3 4 6 3 5 1 3 4 7 11 9 7 4 4 7 14 18 2
12 13 14 15 16 17 18 19 20 21 22 22 23 24 26 29 26 23 2 6 3 6 10 6 8 7 8 2 5 4 4 4 2 4 3 6 5 12 4 5 7 8 7 13 11 12 7
12 13 14 15 16 17 18 19 20 22 22 23 23 23 25 30 30 4 3 3 4 2 1 9 5 5 5 9 6 6 8 4 4 3 4 6 11 6 4 7 4 4 6 5 9 3 2
13 13 14 15 16 17 18 19 20 22 23 23 23 22 22 31 3 5 5 7 7 2 5 5 4 6 4 4 3 5 8 6 3 6 5 6 4 4 3 1 3 1 4 6 4 5 2
12 13 14 16 16 17 18 20 21 23 25 25 24 21 18 9 4 2 4 8 6 5 3 2 2 1 2 4 2 3 3 3 4 3 5 7 5 6 8 6 5 4 5 5 2 2 3
14 13 14 15 17 18 19 20 22 24 26 28 27 23 19 1 1 7 8 7 5 6 1 3 1 3 2 2 3 3 2 4 2 1 1 5 2 4 2 4 1 6 3 5 5 3 5
16 16 14 15 16 17 18 20 22 24 26 29 30 27 13 2 3 5 5 5 6 3 4 6 3 4 2 4 4 5 3 2 2 2 5 6 3 4 4 6 4 10 8 6 7 6 5
17 17 16 16 16 16 18 20 21 23 26 29 32 27 5 6 1 6 4 6 3 2 3 3 3 4 4 6 4 6 3 3 5 4 4 2 5 5 6 1 3 3 5 5 3 2 6
17 18 17 17 17 16 17 19 21 23 26 29 27 5 4 4 5 2 6 5 3 2 4 5 5 6 6 6 4 6 4 2 2 2 5 3 5 5 3 4 3 7 2 4 3 2 2
18 19 18 18 19 18 17 19 21 23 26 27 5 5 5 3 5 6 6 3 3 3 6 4 3 2 5 6 7 7 4 3 1 2 5 5 1 1 5 5 5 1 3 5 5 3 4
16 17 18 18 18 19 17 17 19 21 26 22 4 6 4 3 4 7 3 5 5 7 4 3 4 1 2 3 2 3 4 2 2 2 2 4 4 5 3 3 2 6 5 4 3 4 3
16 17 18 19 19 18 18 16 17 19 25 9 4 4 4 3 4 1 0 2 6 7 5 3 3 2 2 1 2 3 1 3 8 3 1 2 6 1 4 5 5 5 2 5 5 7 4
15 16 17 18 18 18 17 15 13 14 13 4 3 5 5 4 2 3 6 5 3 6 5 5 3 1 2 0 2 2 4 6 7 5 2 2 2 4 9 7 6 1 3 3 2 3 6
15 15 16 17 18 18 17 15 12 11 10 2 2 4 6 6 1 3 4 4 6 6 2 5 4 2 3 3 6 4 7 4 7 4 9 8 3 7 7 7 2 6 6 6 3 3 4
15 15 16 16 17 18 17 16 16 11 11 2 1 3 2 4 4 3 2 3 5 8 6 5 6 4 1 4 3 3 3 7 5 5 4 4 4 6 6 6 5 7 9 8 5 7 6
16 16 16 16 15 16 17 16 18 10 10 2 0 2 5 3 3 5 4 5 5 6 3 7 1 1 3 5 5 2 0 1 5 4 3 2 3 3 4 8 7 5 11 8 7 5 7
15 15 15 16 16 15 16 16 16 11 4 1 2 2 4 3 3 2 2 3 3 6 5 2 3 2 1 7 8 8 8 6 7 7 3 5 5 2 6 3 6 6 7 5 3 4 4
15 14 15 15 15 15 15 16 16 12 2 1 2 2 3 5 2 4 2 2 4 6 5 5 4 1 4 2 3 4 3 7 9 12 7 6 6 5 4 2 3 6 3 2 4 6 6
15 15 14 14 14 15 14 15 15 13 4 1 1 1 1 4 3 5 1 2 6 6 3 4 3 4 5 4 5 7 7 8 6 2 3 9 5 3 4 4 5 3 3 2 1 7 6
13 14 14 14 14 14 13 14 15 15 8 2 2 2 2 1 6 1 0 1 2 3 6 5 6 6 5 4 4 3 3 3 7 11 5 7 4 5 2 3 3 5 1 2 2 6 5
14 12 11 13 14 14 13 13 15 15 13 3 2 3 1 3 4 4 4 4 2 1 3 5 7 7 3 3 3 4 4 3 4 3 6 4 3 2 2 3 6 6 4 3 1 8 3
14 13 12 11 12 13 13 12 13 15 15 4 3 3 3 3 6 4 4 4 2 2 2 5 5 4 4 4 3 3 3 3 2 3 1 2 1 1 0 2 6 1 3 5 8 5 4
15 13 12 12 10 12 13 13 12 13 11 7 2 2 1 3 7 3 7 11 8 10 6 2 3 2 4 4 0 1 1 1 3 4 1 1 6 5 8 7 5 5 6 5 4 7 5
Wind_Direction
349 349 345 347 344 343 342 342 340 339 341 342 340 338 334 329 324 317 314 312 309 305 303 302 305 305 295 48 254 137 105 117 121 134 162 171 154 154 220 276 315 224 285 260 246 274 234
349 348 346 347 346 345 343 343 342 341 344 341 336 333 327 324 318 315 313 311 307 303 301 294 293 283 204 273 246 147 132 146 145 150 170 187 181 191 236 253 196 292 292 294 315 302 290
348 348 348 347 346 345 345 344 342 340 338 333 331 327 324 321 319 318 316 311 307 302 293 281 235 223 126 239 354 156 152 183 182 170 169 214 151 107 342 304 243 278 327 329 288 263 280
350 349 349 348 347 345 344 344 342 338 336 334 329 327 324 323 320 318 319 313 311 297 269 210 182 203 245 246 199 171 165 295 210 211 234 223 132 181 172 299 5 329 50 357 279 274 302
351 349 349 350 348 344 342 341 340 337 335 332 329 327 326 324 323 321 324 321 321 116 139 148 144 121 276 303 202 218 159 214 159 210 250 271 101 168 31 58 0 2 262 305 314 312 17
348 347 349 350 348 342 340 341 341 338 335 333 331 329 328 326 326 323 324 306 98 104 131 208 253 3 278 295 299 177 195 159 209 62 17 65 57 62 44 77 240 244 269 267 251 299 342
345 344 346 347 343 340 340 340 340 338 335 332 331 329 328 326 328 327 351 65 10 352 65 234 253 271 274 288 283 251 158 136 133 79 141 14 79 236 244 198 215 214 215 255 280 282 355
340 340 339 339 339 339 338 337 336 335 336 333 331 331 329 326 327 321 312 65 8 251 310 236 241 256 263 101 311 298 110 134 127 190 132 18 250 243 236 228 213 218 242 269 288 275 152
338 337 337 338 337 336 336 335 335 335 335 333 331 330 330 322 321 354 335 98 287 101 34 297 218 211 216 144 213 255 136 147 188 211 163 161 244 329 273 290 250 232 190 246 221 289 235
339 338 338 337 336 335 334 333 334 334 333 331 329 331 333 326 26 325 298 325 354 101 46 281 277 275 166 155 267 222 192 157 171 199 189 218 285 272 347 177 165 27 226 261 276 57 257
337 337 338 338 337 336 335 334 334 333 332 330 327 332 336 334 293 307 300 338 332 61 42 199 241 264 27 146 318 291 164 87 222 225 85 262 3 15 32 333 353 288 341 313 333 59 77
339 337 338 338 337 338 337 334 334 333 331 328 326 330 337 134 235 249 311 328 56 41 335 344 39 351 3 274 255 285 129 67 104 192 310 240 274 80 287 322 329 283 330 43 46 70 36
350 339 342 338 336 336 337 335 334 333 331 327 325 323 318 209 241 320 320 43 39 114 337 326 328 351 314 273 289 188 184 64 198 357 341 350 12 354 23 2 329 36 41 354 8 12 238
343 341 340 346 335 335 336 336 335 333 330 327 325 318 208 225 236 355 43 51 85 328 317 317 329 333 49 350 5 331 93 43 35 69 71 72 334 21 337 116 250 343 115 145 278 224 262
349 347 339 343 335 336 336 337 336 335 332 330 322 325 300 281 179 115 65 66 178 298 288 330 347 60 338 346 26 35 49 107 50 31 108 79 302 326 8 342 71 312 20 208 146 32 61
348 349 349 341 342 337 338 340 339 338 333 332 327 339 292 323 147 59 70 233 242 242 320 71 63 65 16 326 28 26 25 313 67 46 142 196 324 280 299 39 8 125 251 20 9 347 306
346 346 345 344 339 336 334 339 340 341 336 329 18 4 276 41 65 44 107 245 287 290 264 180 195 259 11 12 298 356 322 336 46 307 27 115 109 290 18 26 302 353 18 31 118 143 193
341 344 345 344 341 337 334 337 344 348 342 35 8 347 310 10 38 28 20 227 293 318 346 328 108 111 127 144 327 331 26 282 327 194 98 52 129 130 231 300 273 176 97 121 111 292 235
335 338 341 343 342 341 337 333 345 350 23 336 358 269 308 71 86 334 305 300 289 339 324 10 15 45 179 197 345 220 1 355 8 64 109 186 17 25 350 354 347 213 263 157 121 81 226
331 333 336 340 343 341 338 338 339 343 353 75 10 343 324 36 47 128 353 296 326 307 281 349 304 18 46 40 17 357 354 12 357 58 50 84 111 150 190 214 222 305 299 306 151 161 253
326 328 331 336 340 341 337 334 335 338 341 80 47 267 187 316 329 352 303 332 345 1 351 332 348 49 136 51 33 33 349 332 332 22 47 86 203 185 231 238 220 232 262 292 239 219 189
320 322 325 328 334 338 336 332 336 340 341 60 231 22 352 287 310 343 352 19 351 329 257 317 182 113 95 134 159 265 168 185 251 311 87 24 264 182 255 263 257 262 286 253 240 236 262
317 320 320 323 327 332 334 334 331 334 20 8 307 329 112 281 348 28 175 347 324 347 296 287 268 314 187 212 188 211 201 197 212 220 227 174 161 122 258 282 341 319 249 211 248 219 202
300 310 317 316 320 323 330 330 328 330 89 143 258 83 82 265 196 211 352 333 314 310 258 296 349 213 281 5 86 51 336 257 249 252 183 184 163 144 256 44 243 257 345 230 245 248 228
292 296 305 311 311 315 322 325 321 324 230 196 285 270 187 261 228 296 252 287 315 305 271 284 296 223 313 34 36 16 338 355 316 279 311 216 128 186 163 187 284 295 291 280 276 283 216
286 283 292 301 303 307 312 319 321 320 302 177 254 201 243 164 242 161 276 308 262 291 325 283 309 309 43 78 76 130 244 262 315 326 82 73 89 116 114 161 255 231 209 295 89 288 237
277 275 282 291 296 297 302 309 316 307 313 198 271 215 251 236 263 178 204 197 202 107 258 299 324 339 21 70 116 172 245 230 265 270 325 348 14 169 213 180 267 259 140 153 48 244 276
272 269 269 270 286 290 293 298 309 308 305 159 260 223 193 229 277 233 225 195 346 102 184 284 8 335 25 66 141 224 175 249 315 265 261 196 86 317 77 48 284 183 121 167 217 272 253
267 268 265 269 267 276 286 290 299 304 297 211 250 299 144 194 251 270 242 232 196 197 167 272 217 241 208 91 301 127 304 1 170 279 127 337 184 201 177 220 209 280 243 282 218 227 244